PD3LKN Weather Reports


time (UTC)temp
C
wind
direction
speed
KPH
gust
KPH
rain 1hr
cm
rain 24hr
cm
rain mn
cm
humidity
%
barometer
mb
20260503021004 13 330 0.0 3.2 0.00 1.35 1.35 96 1015.2
20260503020005 13 296 3.2 3.2 0.00 1.35 1.35 96 1015.2
20260503015005 13 296 3.2 3.2 0.00 1.35 1.35 96 1014.9
20260503014005 13 302 3.2 3.2 0.00 1.35 1.35 97 1015.2
20260503013005 13 302 3.2 3.2 0.00 1.35 1.35 97 1015.2
20260503012005 13 282 3.2 3.2 0.00 1.35 1.35 97 1015.4
20260503011004 13 265 1.6 1.6 0.00 1.35 1.35 97 1015.2
20260503010005 13 265 1.6 8.0 0.00 1.35 1.35 97 1015.2
20260503005005 13 305 4.8 8.0 0.00 1.35 1.35 97 1015.6
20260503004004 13 332 4.8 8.0 0.00 1.35 1.35 96 1015.6
20260503003005 13 280 8.0 8.0 0.00 1.35 1.35 96 1015.6
20260503001004 13 272 3.2 3.2 0.00 1.35 1.35 96 1015.9
20260502235005 13 266 0.0 3.2 0.13 1.35 1.35 96 1015.9
20260502234005 13 266 3.2 3.2 0.71 1.35 1.35 96 1016.3
20260502232005 13 237 4.8 4.8 1.17 1.35 1.35 95 1016.3
20260502230004 13 278 4.8 9.7 1.27 1.27 1.27 95 1016.6
20260502225005 13 278 8.0 9.7 1.22 1.22 1.22 95 1016.6
20260502224005 13 278 4.8 4.8 0.64 0.64 0.64 91 1017.6
20260502221004 15 9 4.8 8.0 0.03 0.03 0.03 85 1018.6
20260502220004 14 158 8.0 8.0 0.00 0.00 0.00 91 1017.6
20260502215005 14 158 8.0 8.0 0.00 0.00 0.00 91 1017.6
20260502214005 14 161 4.8 8.0 0.00 0.00 0.00 91 1017.5
20260502213004 14 256 3.2 8.0 0.00 0.00 0.00 92 1016.9
20260502212005 15 256 8.0 8.0 0.00 0.00 0.00 92 1017.3
20260502211005 15 212 4.8 8.0 0.00 0.00 0.00 91 1017.3
20260502210005 15 132 1.6 3.2 0.00 0.00 0.00 90 1017.3
20260502205005 15 260 3.2 3.2 0.00 0.00 0.00 85 1017.6
20260502204005 15 126 3.2 3.2 0.00 0.00 0.00 75 1017.9
20260502203004 15 184 1.6 1.6 0.00 0.00 0.00 72 1017.9
20260502202004 15 164 0.0 3.2 0.00 0.00 0.00 69 1017.9
20260502201004 15 173 3.2 3.2 0.00 0.00 0.00 67 1017.9
20260502195004 16 290 1.6 3.2 0.00 0.00 0.00 61 1018.3
20260502194015 16 290 3.2 4.8 0.00 0.00 0.00 61 1018.3
20260502193006 16 118 3.2 3.2 0.00 0.00 0.00 62 1017.9
20260502192015 16 157 3.2 3.2 0.00 0.00 0.00 66 1018.3
20260502191016 16 168 1.6 4.8 0.00 0.00 0.00 65 1018.3
20260502190005 17 154 3.2 3.2 0.00 0.00 0.00 64 1017.9
20260502185004 17 166 3.2 3.2 0.00 0.00 0.00 63 1018.3
20260502184015 17 260 3.2 3.2 0.00 0.00 0.00 62 1017.9
20260502182005 19 156 3.2 3.2 0.00 0.00 0.00 47 1017.9
20260502164004 21 73 4.8 4.8 0.00 0.00 0.00 46 1019.0
20260502163004 21 72 4.8 4.8 0.00 0.00 0.00 47 1019.1
20260502162005 21 62 4.8 4.8 0.00 0.00 0.00 47 1019.0
20260502161006 21 71 4.8 8.0 0.00 0.00 0.00 48 1019.1
20260502152004 21 54 9.7 9.7 0.00 0.00 0.00 52 1019.6
20260502151005 22 56 4.8 4.8 0.00 0.00 0.00 50 1019.5
20260502123005 20 8 8.0 9.7 0.00 0.00 0.00 69 1021.3
20260502122005 20 75 9.7 9.7 0.00 0.00 0.00 70 1021.0
20260502121006 20 74 9.7 9.7 0.00 0.00 0.00 72 1021.0
20260502113005 20 66 8.0 11.3 0.00 0.00 0.00 72 1021.3
20260502112005 19 69 9.7 11.3 0.00 0.00 0.00 74 1021.7
20260502111005 19 57 8.0 8.0 0.00 0.00 0.00 75 1021.3
20260502110004 20 73 6.4 14.5 0.00 0.00 0.00 74 1021.3
20260502105005 20 48 14.5 14.5 0.00 0.00 0.00 74 1021.7
20260502104005 19 1 9.7 14.5 0.00 0.00 0.00 73 1021.7
20260502103004 19 32 9.7 9.7 0.00 0.00 0.00 72 1021.7
20260502102005 19 31 8.0 9.7 0.00 0.00 0.00 72 1021.7
20260502101004 20 72 9.7 11.3 0.00 0.00 0.00 71 1021.7
20260502091004 17 14 4.8 4.8 0.00 0.00 0.00 75 1021.7
20260502071004 13 26 1.6 3.2 0.00 0.00 0.00 72 1022.0
20260502070004 13 14 3.2 4.8 0.00 0.00 0.00 71 1022.0
20260502065005 13 31 3.2 4.8 0.00 0.00 0.00 69 1022.0
20260502064005 13 30 1.6 1.6 0.00 0.00 0.00 68 1022.0
20260502063006 13 30 1.6 1.6 0.00 0.00 0.00 68 1022.0
20260502062005 12 31 1.6 1.6 0.00 0.00 0.00 68 1021.7
20260502061005 12 30 1.6 3.2 0.00 0.00 0.00 68 1021.7
20260502060005 12 30 3.2 8.0 0.00 0.00 0.00 66 1022.0
20260502055004 12 16 4.8 8.0 0.00 0.00 0.00 65 1022.0
20260502054004 13 20 4.8 8.0 0.00 0.00 0.00 63 1021.7
20260502053005 13 42 4.8 8.0 0.00 0.00 0.00 62 1021.7
20260502052005 12 35 3.2 3.2 0.00 0.00 0.00 64 1021.7
20260502051005 12 35 3.2 4.8 0.00 0.00 0.00 64 1021.7
20260502050004 12 32 4.8 4.8 0.00 0.00 0.00 64 1021.7
20260502044005 12 32 1.6 4.8 0.00 0.00 0.00 64 1021.7
20260502043005 12 34 4.8 4.8 0.00 0.00 0.00 63 1021.4
20260502042005 12 31 3.2 4.8 0.00 0.00 0.00 64 1021.7
20260502040005 11 300 0.0 0.0 0.00 0.00 0.00 67 1021.7
20260502035005 11 300 0.0 0.0 0.00 0.00 0.00 68 1021.7
20260502034005 11 300 0.0 0.0 0.00 0.00 0.00 68 1021.7
20260502033005 11 300 0.0 0.0 0.00 0.00 0.00 65 1021.7
20260502032005 11 300 0.0 0.0 0.00 0.00 0.00 65 1021.7
20260502031005 12 300 0.0 0.0 0.00 0.00 0.00 63 1022.0
20260502030005 12 300 0.0 0.0 0.00 0.00 0.00 62 1022.0
20260502025004 12 300 0.0 0.0 0.00 0.00 0.00 62 1022.0
20260502023005 12 300 0.0 0.0 0.00 0.00 0.00 61 1022.2